千帆星座-201(QIANFAN-201)

导读

QIANFAN-201(NORAD编号69800)是中国上海垣信卫星科技有限公司运营的千帆低轨星座组网卫星,单星重约300公斤,采用平板堆叠设计与氪工质霍尔电推进系统,适配火箭多星发射需求。该卫星属于千帆星座已部署的在轨批次,核心任务为提供低延迟、高带宽的卫星互联网接入服务,重点覆盖偏远地区、海洋等地面通信空白区域。目前千帆星座一期组网进度已达37%,预计2026年底完成324星部署后正式启动商业化运营,后续还将拓展通导遥算智安一体化功能。

Basic Information
目录编号:
69800
目录名称:
QIANFAN-201
国际标识:
2026-153A
轨道中心:
EARTH
卫星名称:
千帆星座-201
卫星全名:
千帆星座-201(QIANFAN-201)
卫星状态:
在轨 (已飞行63 天)
发射日期:
2026-07-04 UTC
国别 :
中国 (CN)
星等 :
--
Orbit Information
数据来源 国际轨道数据
星历时间: 2026-09-05T12:01:18+0800
4小时前
查看轨道信息
半长轴: 7249.626km
偏心率: 0.0008039
轨道倾角: 88.998°
近地点辐角 40.256°
升交点赤经 353.154°
平近点角 319.921°
近地点: 865.661km
远地点: 877.317km
周期: 102.384分钟
每日圈数: 14.064664
Detailed Information
卫星平台:
201
覆盖范围:
全球
运营商:
上海垣信卫星科技有限公司
运营商所在国:
中国
使用方式:
暂无
Satellite Introduction
千帆星座,也被称为“G60星链”计划,是中国版“星链”的重要组成部分,旨在打造一个由1.4万多颗低轨宽频多媒体卫星构成的庞大星座。千帆星座计划由上海垣信卫星科技有限公司负责实施,于2023年启动建设。该项目是我国第二个低轨卫星大星座,旨在通过构建庞大的卫星网络,为全球用户提供高质量的通信和宽带互联网服务。
2D Orbit Map
3D Orbit Map
Orbit Altitude Analysis Chart
Orbit Inclination Analysis Chart
Orbit Comprehensive Analysis Chart
View Comprehensive Chart
Conjunction Data List
Event ID Objects TCA Miss Dist (km) Collision Risk Probability Collision Risk Index (CRI) Action
CDM_260903-103205-445406-980021
2026-09-03T
10:32:58+0000
2.415 km
极远距离
1.86372E-6 低风险 0.4
CDM_260907-185205-462806-980021
2026-09-07T
18:52:56+0000
2.702 km
极远距离
1.53189E-6 低风险 0.39
CDM_260830-153103-230306-980021
2026-08-30T
15:31:12+0000
2.788 km
极远距离
5.910512E-7 极低风险 0.3